Location: All Nations United Methodist Church
(33.0215°N, 96.7483°W)
Time: 15:43:19
(UTC+00:00)

NOSS 3-2 (C) - Pass Details

Date: 24 January 2021
Orbit: 783 x 1429 km, 63.4° (Epoch: 03 March)

Event Time Altitude Azimuth Distance (km) Brightness Sun altitude
Rises 12:41:21 0° 223° (SW) 3,273 6.0 -9.8°
Reaches altitude 10° 12:43:43 10° 228° (SW) 2,375 5.2 -9.3°
Maximum altitude 12:49:00 53° 305° (NW) 1,048 3.4 -8.3°
Drops below altitude 10° 12:54:57 10° 21° (NNE) 2,666 5.9 -7.1°
Sets 12:57:46 0° 26° (NNE) 3,713 6.6 -6.5°
